Location: Unspecified
(0.0000°N, 0.0000°E)
Time: 13:45:08
(UTC+00:00)

Explorer 11/Cluster Stage 4 - Pass Details

Date: 24 November 2019
Orbit: 467 x 1259 km, 28.8° (Epoch: 08 December)

Event Time Altitude Azimuth Distance (km) Brightness Sun altitude
Exits shadow 04:18:54 12° 240° (WSW) 3,045 9.2 -20.5°
Maximum altitude 04:23:10 18° 206° (SSW) 2,596 9.2 -19.5°
Drops below altitude 10° 04:28:08 10° 166° (SSE) 3,044 10.0 -18.3°
Sets 04:31:52 0° 148° (SSE) 3,879 11.0 -17.4°
